Terminal Aerodrome Forecast
Issued by NWS Memphis, TN

Home | Current Version | Previous Version | Text Only | Print | Product List | Glossary On
Versions: 1 2 3 4 5 6 7 8 9 10 11 12 13 14 15 16 17 18 19 20 21 22 23 24 25 26 27
090
FTUS44 KMEG 280524
TAFMEM
TAF
KMEM 280524Z 2806/2906 24003KT P6SM SKC
     FM281400 24010KT P6SM FEW250
     FM281900 29012G18KT P6SM SCT070
     FM290000 36012G18KT P6SM SCT070
     FM290300 02010KT P6SM SKC=

USA.gov is the U.S. government's official web portal to all federal, state and local government web resources and services.